FW9015 Weather Reports


Display with metric or nautical units.
time (UTC)temp
F
wind
direction
speed
MPH
gust
MPH
rain 1hr
in
rain 24hr
in
rain mn
in
humidity
%
barometer
mb
20260505021540 63 216 1.0 3.0 0.00 0.00 0.00 100 1013.0
20260505020039 60 0 0.0 1.0 0.00 0.00 0.00 100 1012.9
20260505014544 59 0 0.0 0.0 0.00 0.00 0.00 100 1012.9
20260505013049 60 0 0.0 0.0 0.00 0.00 0.00 100 1013.1
20260505011545 61 0 0.0 1.0 0.00 0.00 0.00 100 1013.0
20260505010040 62 250 0.0 1.0 0.00 0.00 0.00 100 1012.9
20260505004547 63 215 1.0 3.0 0.00 0.00 0.00 100 1012.5
20260505003044 63 216 1.0 2.0 0.00 0.00 0.00 100 1012.5
20260505001543 63 219 0.0 2.0 0.00 0.00 0.00 100 1012.4
20260504234542 65 217 0.0 5.0 0.00 0.00 0.00 100 1012.3
20260504233040 66 221 0.0 4.0 0.00 0.00 0.00 100 1012.3
20260504231539 67 222 1.0 5.0 0.00 0.00 0.00 100 1012.1
20260504230055 68 223 1.0 6.0 0.00 0.00 0.00 100 1012.1
20260504224538 68 226 2.0 6.0 0.00 0.00 0.00 100 1012.1
20260504223042 69 178 2.0 5.0 0.00 0.00 0.00 100 1012.1
20260504221550 70 232 2.0 8.0 0.00 0.00 0.00 100 1012.2
20260504220040 71 229 1.0 6.0 0.00 0.00 0.00 100 1012.2
20260504214539 72 169 2.0 9.0 0.00 0.00 0.00 100 1012.4
20260504213046 72 215 3.0 8.0 0.00 0.00 0.00 100 1012.5
20260504211546 72 227 2.0 9.0 0.00 0.00 0.00 100 1012.6
20260504210044 71 355 2.0 5.0 0.00 0.00 0.00 100 1012.4
20260504204541 71 234 2.0 9.0 0.00 0.00 0.00 100 1012.5
20260504203039 70 200 2.0 9.0 0.00 0.00 0.00 100 1012.6
20260504201543 69 207 3.0 7.0 0.00 0.00 0.00 100 1012.8
20260504200045 69 145 1.0 8.0 0.00 0.00 0.00 100 1013.0
20260504194540 69 178 3.0 8.0 0.00 0.00 0.00 100 1013.0
20260504193045 70 204 3.0 11.0 0.00 0.00 0.00 100 1013.1
20260504191543 70 136 3.0 10.0 0.00 0.00 0.00 100 1013.4
20260504190044 70 171 3.0 13.0 0.00 0.00 0.00 100 1013.5
20260504184543 71 226 3.0 9.0 0.00 0.00 0.00 100 1013.8
20260504183039 71 198 3.0 8.0 0.00 0.00 0.00 100 1014.0
20260504181538 71 180 1.0 11.0 0.00 0.00 0.00 100 1014.1
20260504180045 71 175 3.0 8.0 0.00 0.00 0.00 100 1014.3
20260504174542 70 211 3.0 8.0 0.00 0.00 0.00 100 1014.1
20260504173040 71 323 3.0 10.0 0.00 0.00 0.00 100 1014.3
20260504171539 74 239 3.0 9.0 0.00 0.00 0.00 100 1014.5
20260504081544 55 190 2.0 5.0 0.00 0.00 0.00 100 1017.0
20260504050106 56 234 4.0 10.0 0.00 0.00 0.00 100 1017.3
20260504044547 56 210 3.0 9.0 0.00 0.00 0.00 100 1017.4
20260504043049 55 234 0.0 4.0 0.00 0.00 0.00 100 1017.3
20260504041542 55 210 1.0 5.0 0.00 0.00 0.00 100 1017.4
20260504040051 54 201 0.0 3.0 0.00 0.00 0.00 100 1017.3
20260504034543 54 208 2.0 4.0 0.00 0.00 0.00 100 1017.2
20260504033047 53 250 0.0 3.0 0.00 0.00 0.00 100 1017.2
20260504031550 53 214 1.0 3.0 0.00 0.00 0.00 100 1017.1
20260504030040 51 36 1.0 3.0 0.00 0.00 0.00 100 1017.1
20260504024614 49 0 1.0 3.0 0.00 0.00 0.00 100 1017.3
20260504023049 47 0 0.0 1.0 0.00 0.00 0.00 100 1017.1